カタログに戻る

STARLINK-5815

運用中通信VLEO
NORAD 55789·PAYLOAD·🇺🇸 United States

打ち上げ Mar 3, 2023 から Vandenberg Space Force Base

Loading…

次のパス (今後24時間)

TLE

最新Source: CelesTrak SupGP

元期: Sep 14, 2026, 21:13 UTC

1 55789C 23028BA  26257.88451389  .00022008  00000+0  18442-2 0  2576
2 55789  70.0003  87.3811 0002286 269.2046 208.4945 14.98325204    12

AllMySatでSTARLINK-5815をリアルタイム追跡

Download on the App Store